When you browse on this site, cookies collect data to enhance your experience and personalize the content and advertising you see.
Visit our Privacy Policy to learn more. By continuing to use the site, you agree to this use of cookies and data.
  • In Hungary
  • List of Countries
  • For 7 days
  • Water Temperature
  • Weather Map
  • News
  • Weather Widgets
  • user-avatar
    Login

    Hourly Weather Ropotamo

    Today, 13 November, Wednesday

    Time Temperature Precipitation Wind Pressure Humidity
    00:00 +15°C° 0 mm 2 mps 757 mmHg 87%
    01:00 +15°C° 0 mm 2 mps 757 mmHg 85%
    02:00 +15°C° 0 mm 2 mps 757 mmHg 83%
    03:00 +15°C° 0 mm 2 mps 756 mmHg 81%
    04:00 +15°C° 0 mm 2 mps 756 mmHg 79%
    05:00 +15°C° 0 mm 2 mps 756 mmHg 78%
    06:00 +16°C° 0 mm 2 mps 756 mmHg 74%
    07:00 +16°C° 0 mm 2 mps 756 mmHg 70%
    08:00 +17°C° 0 mm 2 mps 756 mmHg 66%
    09:00 +19°C° 0 mm 2 mps 756 mmHg 58%
    10:00 +21°C° 0 mm 2 mps 756 mmHg 50%
    11:00 +25°C° 0 mm 3 mps 756 mmHg 42%
    12:00 +25°C° 0 mm 2 mps 756 mmHg 44%
    13:00 +25°C° 0 mm 2 mps 756 mmHg 46%
    14:00 +25°C° 0 mm 2 mps 756 mmHg 48%
    15:00 +24°C° 0 mm 2 mps 755 mmHg 52%
    16:00 +23°C° 0 mm 2 mps 755 mmHg 55%
    17:00 +21°C° 0 mm 2 mps 755 mmHg 59%
    18:00 +20°C° 0 mm 2 mps 755 mmHg 61%
    19:00 +20°C° 0 mm 2 mps 755 mmHg 62%
    20:00 +19°C° 0 mm 2 mps 756 mmHg 63%
    21:00 +19°C° 0 mm 2 mps 755 mmHg 63%
    22:00 +20°C° 0 mm 1 mps 755 mmHg 63%
    23:00 +20°C° 0 mm 1 mps 755 mmHg 64%

    Tomorrow, 14 November, Thursday

    Time Temperature Precipitation Wind Pressure Humidity
    00:00 +19°C° 0 mm 1 mps 755 mmHg 65%
    01:00 +19°C° 0 mm 1 mps 755 mmHg 66%
    02:00 +18°C° 0 mm 2 mps 754 mmHg 68%
    03:00 +18°C° 0 mm 2 mps 754 mmHg 70%
    04:00 +17°C° 0 mm 2 mps 754 mmHg 73%
    05:00 +17°C° 0 mm 3 mps 754 mmHg 76%
    06:00 +17°C° 0 mm 3 mps 754 mmHg 79%
    07:00 +17°C° 0 mm 3 mps 754 mmHg 81%
    08:00 +17°C° 0 mm 2 mps 755 mmHg 84%
    09:00 +18°C° 0 mm 2 mps 754 mmHg 80%
    10:00 +19°C° 0 mm 2 mps 754 mmHg 77%
    11:00 +19°C° 0 mm 2 mps 754 mmHg 73%
    12:00 +20°C° 0 mm 2 mps 754 mmHg 70%
    13:00 +20°C° 0 mm 2 mps 754 mmHg 66%
    14:00 +21°C° 0 mm 2 mps 754 mmHg 62%
    15:00 +20°C° 0 mm 2 mps 754 mmHg 68%
    16:00 +19°C° 0 mm 2 mps 754 mmHg 74%
    17:00 +18°C° 0 mm 2 mps 754 mmHg 80%
    18:00 +19°C° 0 mm 1 mps 755 mmHg 80%
    19:00 +18°C° 0 mm 1 mps 755 mmHg 80%
    20:00 +18°C° 0 mm 1 mps 755 mmHg 81%
    21:00 +18°C° 0.1 mm 1 mps 756 mmHg 81%
    22:00 +17°C° 0.1 mm 2 mps 756 mmHg 81%
    23:00 +17°C° 0.1 mm 2 mps 756 mmHg 81%

    Day after tomorrow, 15 November, Friday

    Time Temperature Precipitation Wind Pressure Humidity
    00:00 +17°C° 0.3 mm 2 mps 756 mmHg 83%
    01:00 +16°C° 0.3 mm 1 mps 756 mmHg 85%
    02:00 +16°C° 0.3 mm 1 mps 757 mmHg 87%
    03:00 +16°C° 0.2 mm 1 mps 757 mmHg 88%
    04:00 +16°C° 0.2 mm 1 mps 757 mmHg 89%
    05:00 +16°C° 0.2 mm 1 mps 757 mmHg 90%
    06:00 +16°C° 0.1 mm 1 mps 757 mmHg 89%
    07:00 +16°C° 0.1 mm 1 mps 758 mmHg 88%
    08:00 +16°C° 0.1 mm 1 mps 758 mmHg 87%
    09:00 +18°C° 0 mm 1 mps 758 mmHg 81%
    10:00 +19°C° 0 mm 1 mps 758 mmHg 75%
    11:00 +20°C° 0 mm 1 mps 759 mmHg 70%
    12:00 +20°C° 0 mm 1 mps 759 mmHg 68%
    13:00 +20°C° 0 mm 1 mps 759 mmHg 67%
    14:00 +21°C° 0 mm 1 mps 759 mmHg 65%
    15:00 +20°C° 0 mm 1 mps 759 mmHg 70%
    16:00 +19°C° 0 mm 1 mps 759 mmHg 75%
    17:00 +18°C° 0 mm 1 mps 759 mmHg 80%
    18:00 +16°C° 0 mm 1 mps 759 mmHg 82%
    19:00 +16°C° 0 mm 1 mps 760 mmHg 84%
    20:00 +15°C° 0 mm 1 mps 760 mmHg 87%
    21:00 +15°C° 0 mm 1 mps 760 mmHg 87%
    22:00 +15°C° 0 mm 1 mps 760 mmHg 88%
    23:00 +15°C° 0 mm 1 mps 760 mmHg 88%

    16 November, Saturday

    Time Temperature Precipitation Wind Pressure Humidity
    00:00 +14°C° 0 mm 1 mps 761 mmHg 88%
    01:00 +14°C° 0 mm 1 mps 761 mmHg 88%
    02:00 +14°C° 0 mm 1 mps 761 mmHg 88%
    03:00 +13°C° 0 mm 0 mps 761 mmHg 88%
    04:00 +13°C° 0 mm 0 mps 761 mmHg 87%
    05:00 +13°C° 0 mm 0 mps 761 mmHg 87%
    06:00 +13°C° 0 mm 0 mps 761 mmHg 87%
    07:00 +13°C° 0 mm 0 mps 761 mmHg 86%
    08:00 +13°C° 0 mm 0 mps 762 mmHg 85%
    09:00 +16°C° 0 mm 1 mps 762 mmHg 80%
    10:00 +18°C° 0 mm 1 mps 762 mmHg 75%
    11:00 +20°C° 0 mm 1 mps 762 mmHg 70%
    12:00 +19°C° 0 mm 2 mps 761 mmHg 70%
    13:00 +19°C° 0 mm 2 mps 761 mmHg 69%
    14:00 +19°C° 0 mm 2 mps 761 mmHg 69%
    15:00 +18°C° 0 mm 2 mps 761 mmHg 76%
    16:00 +17°C° 0 mm 2 mps 761 mmHg 83%
    17:00 +16°C° 0 mm 3 mps 761 mmHg 89%
    18:00 +16°C° 0 mm 3 mps 761 mmHg 91%
    19:00 +14°C° 0 mm 3 mps 761 mmHg 93%
    20:00 +14°C° 0 mm 3 mps 761 mmHg 95%
    21:00 +14°C° 0 mm 4 mps 761 mmHg 94%
    22:00 +14°C° 0 mm 4 mps 761 mmHg 93%
    23:00 +14°C° 0 mm 4 mps 761 mmHg 93%

    17 November, Sunday

    Time Temperature Precipitation Wind Pressure Humidity
    00:00 +14°C° 0 mm 4 mps 761 mmHg 92%
    01:00 +14°C° 0 mm 4 mps 761 mmHg 91%
    02:00 +14°C° 0 mm 4 mps 761 mmHg 90%
    03:00 +14°C° 0 mm 4 mps 761 mmHg 89%
    04:00 +13°C° 0 mm 4 mps 761 mmHg 87%
    05:00 +13°C° 0 mm 4 mps 760 mmHg 86%
    06:00 +13°C° 0 mm 4 mps 761 mmHg 85%
    07:00 +12°C° 0 mm 5 mps 761 mmHg 84%
    08:00 +12°C° 0 mm 5 mps 761 mmHg 83%
    09:00 +13°C° 0 mm 5 mps 761 mmHg 80%
    10:00 +13°C° 0 mm 4 mps 761 mmHg 77%
    11:00 +13°C° 0 mm 4 mps 761 mmHg 75%
    12:00 +14°C° 0 mm 4 mps 761 mmHg 74%
    13:00 +14°C° 0 mm 4 mps 760 mmHg 73%
    14:00 +14°C° 0 mm 5 mps 760 mmHg 72%
    15:00 +14°C° 0 mm 5 mps 760 mmHg 74%
    16:00 +14°C° 0 mm 4 mps 760 mmHg 75%
    17:00 +14°C° 0 mm 4 mps 760 mmHg 77%
    18:00 +14°C° 0 mm 4 mps 760 mmHg 77%
    19:00 +14°C° 0 mm 4 mps 760 mmHg 77%
    20:00 +14°C° 0 mm 4 mps 760 mmHg 77%
    21:00 +14°C° 0 mm 4 mps 760 mmHg 77%
    22:00 +14°C° 0 mm 4 mps 760 mmHg 76%
    23:00 +14°C° 0 mm 4 mps 760 mmHg 76%

    18 November, Monday

    Time Temperature Precipitation Wind Pressure Humidity
    00:00 +14°C° 0 mm 4 mps 760 mmHg 77%
    01:00 +14°C° 0 mm 4 mps 760 mmHg 78%
    02:00 +14°C° 0 mm 5 mps 760 mmHg 78%
    03:00 +14°C° 0 mm 4 mps 760 mmHg 77%
    04:00 +14°C° 0 mm 4 mps 759 mmHg 77%
    05:00 +14°C° 0 mm 4 mps 759 mmHg 76%
    06:00 +14°C° 0 mm 5 mps 759 mmHg 76%
    07:00 +14°C° 0 mm 5 mps 760 mmHg 75%
    08:00 +14°C° 0 mm 5 mps 760 mmHg 75%
    09:00 +15°C° 0 mm 5 mps 760 mmHg 73%
    10:00 +15°C° 0 mm 6 mps 760 mmHg 71%
    11:00 +15°C° 0 mm 6 mps 760 mmHg 69%
    12:00 +15°C° 0 mm 5 mps 760 mmHg 69%
    13:00 +15°C° 0 mm 5 mps 760 mmHg 69%
    14:00 +15°C° 0 mm 5 mps 760 mmHg 69%
    15:00 +15°C° 0 mm 5 mps 760 mmHg 71%
    16:00 +14°C° 0 mm 5 mps 760 mmHg 72%
    17:00 +14°C° 0 mm 4 mps 760 mmHg 74%
    18:00 +14°C° 0 mm 4 mps 760 mmHg 73%
    19:00 +13°C° 0 mm 4 mps 760 mmHg 73%
    20:00 +13°C° 0 mm 4 mps 760 mmHg 73%
    21:00 +13°C° 0 mm 4 mps 760 mmHg 73%
    22:00 +13°C° 0 mm 4 mps 760 mmHg 74%
    23:00 +12°C° 0 mm 3 mps 761 mmHg 75%
    Show more